CW8164 Weather Reports


Display with metric or nautical units.
time (UTC)temp
F
wind
direction
speed
MPH
gust
MPH
rain 1hr
in
rain 24hr
in
rain mn
in
humidity
%
barometer
mb
20260502163904 52 13 0.0 0.0 0.00 0.03 0.03 88 1016.0
20260502163403 52 34 0.0 0.0 0.00 0.03 0.03 88 1016.0
20260502162904 52 38 0.0 0.0 0.00 0.03 0.03 88 1015.9
20260502162403 52 266 0.0 0.0 0.00 0.03 0.03 88 1015.9
20260502161904 52 252 0.0 0.0 0.00 0.03 0.03 89 1015.9
20260502161403 52 242 0.0 0.0 0.00 0.03 0.03 90 1016.0
20260502160903 52 240 0.0 0.0 0.00 0.03 0.03 89 1016.0
20260502151904 51 190 0.0 0.0 0.01 0.03 0.03 90 1016.1
20260502151403 51 165 0.0 0.0 0.01 0.03 0.03 90 1016.1
20260502150904 51 90 0.0 0.0 0.01 0.03 0.03 91 1016.2
20260502150404 51 80 0.0 0.0 0.01 0.03 0.03 90 1016.1
20260502130403 50 70 0.0 0.0 0.00 0.02 0.02 93 1015.6
20260502123404 50 36 0.0 0.0 0.00 0.02 0.02 92 1015.6
20260502122904 50 65 0.0 0.0 0.00 0.02 0.02 92 1015.6
20260502122403 50 41 0.0 0.0 0.00 0.02 0.02 93 1015.6
20260502121903 50 20 0.0 0.0 0.00 0.02 0.02 93 1015.7
20260502121403 50 327 0.0 0.0 0.00 0.02 0.02 93 1015.8
20260502120904 50 205 0.0 0.0 0.00 0.02 0.02 93 1015.7
20260502120403 50 205 0.0 0.0 0.00 0.02 0.02 93 1015.8
20260502115903 50 205 0.0 0.0 0.00 0.02 0.02 93 1015.8
20260502115404 50 202 0.0 0.0 0.00 0.02 0.02 93 1015.6
20260502114904 50 186 0.0 0.0 0.00 0.02 0.02 93 1015.4
20260502114404 50 185 0.0 0.0 0.00 0.02 0.02 93 1015.4
20260502113903 50 259 0.0 0.0 0.00 0.02 0.02 93 1015.3
20260502113403 50 251 0.0 0.0 0.00 0.02 0.02 93 1015.4
20260502112904 49 239 0.0 0.0 0.00 0.02 0.02 93 1015.5
20260502112403 49 237 0.0 0.0 0.00 0.02 0.02 93 1015.6
20260502111403 49 237 0.0 0.0 0.00 0.02 0.02 93 1015.5
20260502110404 49 237 0.0 0.0 0.00 0.02 0.02 92 1015.4
20260502105904 50 237 0.0 0.0 0.00 0.02 0.02 92 1015.4
20260502105403 50 234 0.0 0.0 0.00 0.02 0.02 92 1015.6
20260502104903 50 216 0.0 0.0 0.00 0.02 0.02 92 1015.6
20260502104404 50 138 0.0 0.0 0.00 0.02 0.02 92 1015.6
20260502102904 50 42 0.0 0.0 0.00 0.02 0.02 92 1015.6
20260502102404 50 68 0.0 0.0 0.00 0.02 0.02 92 1015.8
20260502101903 50 68 0.0 0.0 0.00 0.02 0.02 92 1015.8
20260502101403 50 82 0.0 0.0 0.00 0.02 0.02 92 1015.8
20260502100903 50 54 0.0 0.0 0.00 0.02 0.02 91 1015.9
20260502100405 50 62 0.0 0.0 0.01 0.02 0.02 91 1016.0
20260502091403 50 306 1.0 9.0 0.02 0.02 0.02 91 1016.9
20260502090903 50 200 3.0 9.0 0.02 0.02 0.02 90 1015.6
20260502071403 51 232 0.0 0.0 0.00 0.00 0.00 86 1016.5
20260502070903 51 232 0.0 0.0 0.00 0.00 0.00 86 1016.4
20260502070403 51 231 0.0 0.0 0.00 0.00 0.00 85 1016.5
20260502065903 51 229 0.0 0.0 0.00 0.00 0.00 85 1016.4
20260502065404 51 227 0.0 0.0 0.00 0.00 0.00 85 1016.4
20260502064903 51 223 0.0 0.0 0.00 0.00 0.00 84 1016.5
20260502064404 51 223 0.0 0.0 0.00 0.00 0.00 84 1016.5
20260502063903 52 223 0.0 0.0 0.00 0.00 0.00 84 1016.4
20260502063403 52 226 0.0 2.0 0.00 0.00 0.00 84 1016.4
20260502062903 52 227 0.0 2.0 0.00 0.00 0.00 83 1016.3
20260502062404 52 231 0.0 1.0 0.00 0.00 0.00 83 1016.4
20260502061903 52 270 0.0 1.0 0.00 0.00 0.00 83 1016.3
20260502061404 52 202 0.0 0.0 0.00 0.00 0.00 82 1016.2
20260502060903 52 294 0.0 0.0 0.00 0.00 0.00 82 1016.3
20260502060403 53 184 0.0 0.0 0.00 0.00 0.00 82 1016.3
20260502055904 53 280 0.0 0.0 0.00 0.00 0.00 81 1016.2
20260502054903 53 223 0.0 0.0 0.00 0.00 0.00 80 1016.4
20260502054404 53 214 0.0 0.0 0.00 0.00 0.00 80 1016.3
20260502052903 54 255 0.0 1.0 0.00 0.00 0.00 79 1016.1
20260502052403 54 285 0.0 1.0 0.00 0.00 0.00 78 1016.1
20260502051903 54 279 0.0 7.0 0.00 0.00 0.00 78 1015.8
20260502051403 54 345 0.0 7.0 0.00 0.00 0.00 77 1015.9
20260502050403 55 208 0.0 2.0 0.00 0.00 0.00 77 1015.9
20260502045903 55 291 0.0 2.0 0.00 0.00 0.00 76 1015.7
20260502045403 55 290 0.0 0.0 0.00 0.00 0.00 76 1015.8
20260502044904 56 226 0.0 1.0 0.00 0.00 0.00 75 1015.8
20260502044403 56 238 0.0 1.0 0.00 0.00 0.00 75 1015.7
20260502043904 56 227 0.0 3.0 0.00 0.00 0.00 75 1015.6
20260502043403 57 266 0.0 3.0 0.00 0.00 0.00 75 1015.5
20260502042403 57 272 0.0 5.0 0.00 0.00 0.00 75 1015.4
20260502041903 57 242 1.0 5.0 0.00 0.00 0.00 74 1015.3
20260502041404 58 237 0.0 5.0 0.00 0.00 0.00 74 1015.3
20260502040903 58 302 0.0 5.0 0.00 0.00 0.00 73 1015.1
20260502040404 58 253 0.0 6.0 0.00 0.00 0.00 74 1015.1
20260502034903 59 185 0.0 3.0 0.00 0.00 0.00 72 1015.1
20260502034403 59 261 1.0 3.0 0.00 0.00 0.00 71 1014.9
20260502033904 60 298 0.0 2.0 0.00 0.00 0.00 71 1015.0
20260502033403 60 274 0.0 3.0 0.00 0.00 0.00 70 1014.9
20260502032903 61 271 1.0 3.0 0.00 0.00 0.00 69 1014.9
20260502032403 61 259 0.0 2.0 0.00 0.00 0.00 68 1014.8
20260502031904 61 259 0.0 2.0 0.00 0.00 0.00 68 1014.8
20260502031404 62 199 0.0 6.0 0.00 0.00 0.00 68 1014.8
20260502030903 62 24 0.0 6.0 0.00 0.00 0.00 67 1014.6
20260502030403 63 296 0.0 6.0 0.00 0.00 0.00 67 1014.5
20260502025903 63 88 1.0 6.0 0.00 0.00 0.00 66 1014.5
20260502025403 63 296 0.0 2.0 0.00 0.00 0.00 66 1014.3
20260502024903 64 245 0.0 0.0 0.00 0.00 0.00 67 1014.3
20260502023904 64 129 0.0 6.0 0.00 0.00 0.00 65 1014.2
20260502023403 65 0 1.0 6.0 0.00 0.00 0.00 63 1014.2
20260502022903 66 105 0.0 3.0 0.00 0.00 0.00 64 1014.1
20260502022404 66 305 0.0 2.0 0.00 0.00 0.00 65 1014.0
20260502021903 66 248 1.0 2.0 0.00 0.00 0.00 63 1014.0
20260502021403 67 295 0.0 5.0 0.00 0.00 0.00 62 1013.9
20260502020403 68 336 1.0 5.0 0.00 0.00 0.00 59 1013.9
20260502015904 68 155 0.0 5.0 0.00 0.00 0.00 58 1013.9
20260502014904 69 193 0.0 2.0 0.00 0.00 0.00 55 1013.9
20260502014404 69 112 0.0 5.0 0.00 0.00 0.00 56 1013.9
20260502013403 69 227 0.0 2.0 0.00 0.00 0.00 56 1013.8
20260502012903 69 229 0.0 8.0 0.00 0.00 0.00 54 1013.8
20260502012403 69 248 1.0 8.0 0.00 0.00 0.00 53 1013.8
20260502011904 70 71 2.0 7.0 0.00 0.00 0.00 50 1013.8
20260502011404 71 100 0.0 6.0 0.00 0.00 0.00 50 1013.8
20260502010903 72 225 1.0 6.0 0.00 0.00 0.00 49 1013.8
20260502010403 72 288 0.0 3.0 0.00 0.00 0.00 50 1013.8
20260502005903 73 222 0.0 3.0 0.00 0.00 0.00 50 1013.7
20260502005403 73 292 1.0 7.0 0.00 0.00 0.00 49 1013.7
20260502004904 73 245 1.0 8.0 0.00 0.00 0.00 48 1013.7
20260502004404 74 252 2.0 8.0 0.00 0.00 0.00 49 1013.6
20260502003904 74 226 0.0 2.0 0.00 0.00 0.00 48 1013.6
20260502002903 74 336 0.0 3.0 0.00 0.00 0.00 45 1013.6
20260502002403 74 60 0.0 8.0 0.00 0.00 0.00 46 1013.6
20260502001904 74 266 2.0 8.0 0.00 0.00 0.00 44 1013.5
20260502001403 74 242 0.0 2.0 0.00 0.00 0.00 49 1013.6
20260502000403 75 197 0.0 3.0 0.00 0.00 0.00 50 1013.5
20260501235903 75 77 0.0 7.0 0.00 0.00 0.00 49 1013.5
20260501235403 75 24 0.0 7.0 0.00 0.00 0.00 50 1013.5
20260501234903 75 116 0.0 5.0 0.00 0.00 0.00 47 1013.4
20260501234403 75 12 0.0 6.0 0.00 0.00 0.00 50 1013.6
20260501233903 75 49 1.0 6.0 0.00 0.00 0.00 49 1013.6
20260501233403 74 354 1.0 6.0 0.00 0.00 0.00 47 1013.6
20260501232904 75 19 1.0 6.0 0.00 0.00 0.00 47 1013.6
20260501232403 75 42 1.0 6.0 0.00 0.00 0.00 45 1013.7
20260501231903 75 242 0.0 7.0 0.00 0.00 0.00 46 1013.7
20260501231405 75 30 0.0 7.0 0.00 0.00 0.00 46 1013.8
20260501230903 74 217 0.0 5.0 0.00 0.00 0.00 45 1013.8
20260501225903 74 172 0.0 3.0 0.00 0.00 0.00 50 1014.0
20260501225403 74 191 0.0 3.0 0.00 0.00 0.00 47 1014.1
20260501224904 74 65 0.0 3.0 0.00 0.00 0.00 47 1014.2
20260501223904 73 55 0.0 8.0 0.00 0.00 0.00 48 1014.1
20260501223404 73 35 2.0 8.0 0.00 0.00 0.00 48 1014.3
20260501222903 73 27 0.0 7.0 0.00 0.00 0.00 48 1014.4
20260501222403 73 42 2.0 7.0 0.00 0.00 0.00 48 1014.4
20260501220903 72 192 1.0 7.0 0.00 0.00 0.00 51 1014.7
20260501220403 72 264 0.0 7.0 0.00 0.00 0.00 49 1014.7
20260501215903 72 28 3.0 7.0 0.00 0.00 0.00 48 1014.8
20260501215404 72 248 0.0 6.0 0.00 0.00 0.00 48 1015.0
20260501214903 72 265 1.0 6.0 0.00 0.00 0.00 48 1015.0
20260501214404 72 332 0.0 6.0 0.00 0.00 0.00 51 1015.0
20260501213403 72 186 0.0 3.0 0.00 0.00 0.00 51 1015.1
20260501212904 72 237 0.0 3.0 0.00 0.00 0.00 50 1015.2
20260501212404 72 300 1.0 5.0 0.00 0.00 0.00 51 1015.4
20260501211903 72 223 1.0 5.0 0.00 0.00 0.00 52 1015.4
20260501211404 71 248 0.0 3.0 0.00 0.00 0.00 51 1015.4
20260501210903 71 50 0.0 3.0 0.00 0.00 0.00 51 1015.4
20260501205904 71 246 0.0 2.0 0.00 0.00 0.00 53 1015.5
20260501205403 71 278 0.0 1.0 0.00 0.00 0.00 54 1015.5
20260501204903 71 225 0.0 1.0 0.00 0.00 0.00 53 1015.5
20260501204403 71 208 0.0 2.0 0.00 0.00 0.00 54 1015.5
20260501203904 71 184 1.0 2.0 0.00 0.00 0.00 57 1015.6
20260501203403 71 248 0.0 2.0 0.00 0.00 0.00 56 1015.6
20260501202904 71 252 0.0 2.0 0.00 0.00 0.00 53 1015.7
20260501202403 70 259 0.0 3.0 0.00 0.00 0.00 56 1015.7
20260501201904 70 30 1.0 3.0 0.00 0.00 0.00 56 1015.7
20260501201404 70 247 0.0 3.0 0.00 0.00 0.00 56 1015.7
20260501200904 69 252 0.0 3.0 0.00 0.00 0.00 55 1015.8
20260501195903 69 191 0.0 5.0 0.00 0.00 0.00 53 1015.9
20260501195403 69 176 1.0 6.0 0.00 0.00 0.00 54 1015.9
20260501194405 68 247 1.0 3.0 0.00 0.00 0.00 55 1016.1
20260501193904 68 250 0.0 2.0 0.00 0.00 0.00 59 1016.1
20260501193404 68 224 0.0 2.0 0.00 0.00 0.00 54 1016.1
20260501192904 67 207 0.0 3.0 0.00 0.00 0.00 57 1016.1
20260501191903 67 309 0.0 2.0 0.00 0.00 0.00 56 1016.1
20260501191403 66 252 0.0 2.0 0.00 0.00 0.00 59 1016.2
20260501190904 66 252 0.0 5.0 0.00 0.00 0.00 61 1016.3
20260501185903 66 175 0.0 3.0 0.00 0.00 0.00 59 1016.4
20260501185403 66 270 1.0 3.0 0.00 0.00 0.00 60 1016.4
20260501184903 66 182 0.0 2.0 0.00 0.00 0.00 61 1016.4
20260501184404 66 241 0.0 1.0 0.00 0.00 0.00 63 1016.4
20260501183903 65 217 0.0 3.0 0.00 0.00 0.00 62 1016.5
20260501183404 65 192 0.0 3.0 0.00 0.00 0.00 63 1016.5
20260501182904 65 30 0.0 2.0 0.00 0.00 0.00 63 1016.6
20260501182403 65 270 1.0 2.0 0.00 0.00 0.00 64 1016.6
20260501181905 65 11 0.0 2.0 0.00 0.00 0.00 64 1016.5
20260501181403 64 314 0.0 3.0 0.00 0.00 0.00 66 1016.5
20260501180903 64 250 0.0 5.0 0.00 0.00 0.00 67 1016.5
20260501180403 64 205 1.0 5.0 0.00 0.00 0.00 63 1016.5
20260501175904 64 345 0.0 2.0 0.00 0.00 0.00 63 1016.4
20260501173903 62 180 0.0 3.0 0.00 0.00 0.00 64 1016.6
20260501173403 62 191 1.0 3.0 0.00 0.00 0.00 65 1016.6
20260501172904 62 234 0.0 2.0 0.00 0.00 0.00 67 1016.6
20260501172403 61 263 0.0 2.0 0.00 0.00 0.00 66 1016.6
20260501171904 61 222 0.0 3.0 0.00 0.00 0.00 65 1016.7
20260501171404 61 258 0.0 3.0 0.00 0.00 0.00 66 1016.7